Wind_Speed
11 11 11 11 11 12 12 13 14 14 14 14 14 14 13 13 12 12 11 10 10 10 9 9 8 7 6 5 4 4 3 1 2 3 2 0 2 2 2 4 5 7 12 14 12 8 7 7 7 7 6 5 4 3 2 3 5 5 5 3 2 5 4 3 1 4 2 5 7 7 7 6 8 8 8 8 7 9 8 7 7 8 8 12 17 21 23 21
9 10 10 10 10 11 11 12 12 13 13 14 14 15 14 14 13 13 12 11 11 10 9 8 7 6 5 3 2 3 5 8 9 7 3 1 1 2 3 5 6 8 11 12 11 9 8 8 8 8 7 5 3 2 2 2 4 3 4 2 5 5 4 1 1 3 2 5 8 7 5 4 8 10 10 8 9 9 8 8 9 12 15 16 20 22 22 20
7 8 8 9 9 9 10 11 11 12 12 13 14 14 14 14 14 14 13 12 11 10 9 8 7 6 4 2 3 7 12 12 10 8 5 2 3 3 4 6 8 9 10 10 9 9 7 7 8 8 7 5 3 2 2 1 2 2 4 3 7 4 5 6 3 1 3 7 9 7 5 4 7 10 9 7 9 9 6 8 10 14 17 19 20 21 21 20
6 6 7 7 8 8 9 10 10 11 12 13 13 13 13 13 13 14 13 12 11 10 9 8 7 6 3 2 7 13 14 10 7 6 5 5 3 3 5 7 10 11 11 9 8 8 7 7 9 7 7 5 4 3 2 1 2 3 4 4 7 4 4 8 5 1 2 5 8 8 7 6 7 8 9 9 8 6 5 7 9 14 19 21 22 21 20 19
6 6 6 6 6 7 7 9 10 11 12 13 14 14 13 13 13 13 12 12 11 11 10 9 8 6 5 4 8 12 9 5 5 5 5 7 5 5 7 9 11 12 10 7 6 7 8 9 8 8 7 5 4 4 1 2 3 3 2 4 5 4 4 7 6 2 2 5 8 9 8 7 8 8 9 10 4 0 3 6 9 14 19 22 23 21 20 19
7 6 6 5 5 5 7 8 10 11 12 13 14 14 14 13 13 11 11 11 11 11 10 10 8 7 7 6 7 6 3 2 5 4 7 9 8 7 8 9 9 10 8 6 5 7 9 9 10 8 7 5 4 2 2 2 4 2 2 4 4 5 5 6 6 3 1 6 8 8 7 7 8 7 9 9 2 1 3 7 11 14 17 20 21 20 19 18
7 7 6 5 4 5 6 8 9 11 12 13 14 14 13 13 11 10 11 12 12 11 10 10 8 8 9 10 10 7 7 8 6 5 9 9 9 9 7 7 7 7 7 6 7 8 9 10 10 8 7 5 2 1 3 3 4 4 1 4 3 5 5 5 5 3 1 3 6 7 7 8 9 6 8 8 3 4 6 9 12 14 17 18 19 19 18 18
7 7 6 5 4 4 5 7 9 11 12 13 14 13 13 12 10 9 11 13 13 11 10 9 7 7 7 7 6 7 11 8 5 6 9 9 9 8 6 6 5 7 6 7 7 7 9 10 10 7 6 3 0 1 4 4 5 4 1 4 3 4 5 4 4 4 2 2 4 7 7 8 8 5 8 8 5 7 9 12 14 15 17 18 18 18 17 17
6 6 5 4 3 4 5 7 9 11 12 13 14 13 12 11 10 10 11 12 13 11 10 8 6 5 5 4 2 3 8 6 5 6 7 9 8 7 6 4 4 6 7 7 7 8 8 9 9 5 4 1 1 2 5 5 2 1 2 4 4 3 4 4 4 3 2 1 4 7 8 6 6 5 8 8 7 9 11 13 15 16 17 17 17 17 17 16
6 6 5 4 3 4 5 7 9 11 12 13 13 12 12 11 10 11 11 12 12 11 10 10 8 5 5 2 4 1 6 4 5 5 6 8 7 7 5 4 5 6 6 7 8 9 7 6 7 4 4 2 1 3 4 5 2 2 1 4 4 3 3 3 3 3 2 2 4 6 7 6 6 6 6 8 10 11 13 14 15 15 16 16 16 17 16 15
6 5 5 3 2 3 5 7 9 10 12 13 13 12 11 11 11 10 12 13 11 10 10 10 9 9 9 5 4 4 5 3 4 4 3 5 6 6 3 3 6 6 6 7 8 8 7 4 5 6 3 1 2 3 2 3 2 1 2 4 5 3 3 2 3 2 2 3 4 5 6 6 6 5 5 9 13 13 14 14 15 15 15 16 16 16 15 14
7 5 4 3 2 3 4 7 8 10 12 13 12 11 10 10 10 9 12 14 10 9 9 8 7 8 9 8 8 7 4 2 3 1 1 3 5 5 3 3 7 7 5 6 7 8 7 5 5 6 2 2 4 3 1 0 1 3 4 3 4 4 2 2 2 1 2 1 4 4 5 6 9 7 5 10 13 14 14 14 14 14 15 16 16 16 15 14
8 6 4 2 2 2 4 6 8 10 11 12 12 10 9 9 9 8 11 13 8 7 8 6 6 5 5 7 9 7 5 4 3 3 4 4 5 5 4 3 7 9 7 5 6 8 9 8 4 3 2 4 4 1 1 1 3 4 4 4 2 4 3 3 2 1 1 1 5 6 5 5 10 8 6 10 13 14 14 14 14 14 15 16 16 15 14 14
10 7 4 2 1 2 4 6 8 9 11 12 11 10 8 7 8 7 10 12 6 6 7 6 5 5 6 7 8 8 8 7 6 6 6 6 5 5 5 4 5 10 11 8 8 10 11 10 3 3 3 5 3 1 4 4 4 4 3 4 3 3 2 5 2 1 1 2 6 7 4 3 9 10 6 9 14 15 14 15 15 14 15 16 16 15 14 14
10 8 5 2 2 2 4 5 7 9 11 12 12 11 7 6 6 5 9 11 4 5 6 6 4 2 3 8 7 6 7 7 7 6 5 6 5 4 5 6 5 8 11 10 10 11 11 9 5 5 3 3 4 6 6 4 4 4 3 4 2 2 2 6 3 1 1 3 6 6 3 1 7 8 5 8 14 15 13 14 15 14 15 16 16 15 14 14
10 9 6 3 2 2 4 5 7 9 10 12 14 11 6 5 3 3 9 10 2 4 4 6 5 1 1 7 6 4 6 5 4 3 3 5 3 3 6 7 7 7 9 9 11 10 8 7 5 5 3 4 6 6 5 5 4 3 4 3 1 3 1 3 3 0 1 1 5 6 2 2 5 6 5 7 12 13 12 14 15 14 15 16 16 15 14 14
10 9 7 4 2 2 3 4 6 9 10 13 15 11 6 4 0 2 10 7 2 3 3 7 5 3 4 6 3 4 5 4 2 2 3 4 4 6 7 7 7 8 9 9 10 8 6 6 4 4 5 5 4 4 6 6 5 4 4 4 2 3 3 1 3 1 1 1 3 6 3 3 5 6 6 7 12 14 14 14 15 14 14 15 15 15 14 14
10 9 7 4 2 3 3 3 6 8 10 14 15 10 6 4 3 3 10 6 2 1 2 6 2 4 6 5 2 4 4 3 2 1 2 4 6 8 6 6 8 10 10 10 8 7 6 6 5 5 5 5 4 5 7 3 2 2 2 3 2 3 3 2 3 2 2 3 1 5 5 2 6 7 7 6 12 16 15 13 14 14 14 14 14 14 14 14
10 9 8 5 3 3 3 3 5 7 10 14 14 10 7 5 3 2 11 7 4 2 1 6 5 1 4 5 3 3 3 4 4 3 2 3 5 7 6 8 10 9 10 9 8 7 7 5 5 5 5 5 4 5 5 4 5 5 5 4 3 3 2 3 4 3 2 5 2 3 4 2 6 7 7 7 11 15 14 11 11 12 13 14 14 14 14 14
11 9 8 5 3 3 3 2 4 6 9 12 14 11 8 7 1 1 10 6 4 6 3 5 5 2 2 2 2 1 3 4 4 4 4 4 5 8 8 7 8 8 6 6 7 6 6 6 6 5 2 2 2 3 5 5 5 7 7 4 4 4 1 4 3 3 4 5 1 1 4 2 5 7 9 9 11 13 13 12 12 11 13 14 14 14 14 14
11 10 8 5 3 4 4 3 3 5 7 10 13 10 8 9 4 3 7 3 4 6 4 4 3 2 2 0 1 2 3 4 5 4 4 4 5 7 6 5 7 6 3 3 5 5 5 7 5 3 0 1 1 2 4 5 6 8 6 5 4 3 0 5 3 3 2 4 0 1 4 4 5 7 9 11 11 13 16 15 13 12 13 14 15 14 14 14
11 9 8 6 4 5 4 4 3 4 6 9 11 8 7 10 8 8 6 2 2 5 5 6 4 3 3 2 2 2 3 5 6 5 3 4 6 4 4 5 5 3 5 5 5 5 6 7 4 3 1 3 4 2 4 6 7 8 6 6 5 1 1 2 2 2 0 3 1 1 4 3 6 8 9 12 11 13 17 16 14 14 14 15 16 14 14 16
11 9 8 6 5 6 6 5 3 3 5 7 7 5 7 10 11 11 6 3 0 3 3 4 3 3 2 4 4 1 2 3 5 6 4 4 3 2 2 3 2 4 7 7 5 4 4 3 2 3 4 6 7 5 6 6 6 8 6 7 5 1 2 2 2 2 2 4 4 4 5 3 6 8 8 11 11 11 13 12 12 14 16 16 16 15 16 17
11 9 7 6 6 7 8 7 5 4 4 5 4 5 8 9 11 11 6 4 1 2 2 3 3 3 2 2 2 0 2 3 2 5 4 4 3 2 1 2 2 4 4 3 5 5 4 2 3 4 6 8 10 8 8 7 7 8 8 9 7 2 4 4 1 2 3 5 6 6 6 3 6 9 8 10 10 9 11 11 11 13 15 15 16 16 16 17
11 9 7 6 6 8 10 8 7 6 4 4 4 6 9 9 10 10 4 5 2 3 1 2 2 2 2 1 2 1 2 4 2 3 4 4 1 1 1 1 3 1 4 2 4 5 2 2 3 6 6 7 9 7 8 8 7 8 8 10 9 6 6 3 0 3 5 4 4 3 6 1 6 9 8 9 11 10 11 13 14 15 14 14 16 17 17 18
12 9 7 6 5 8 10 7 8 8 5 4 5 7 9 9 10 8 4 5 3 3 0 1 1 1 2 1 1 3 5 4 3 2 5 4 2 3 1 2 2 2 2 3 3 2 3 4 4 6 6 7 7 7 8 7 8 7 3 4 6 6 6 3 3 5 5 2 2 2 6 2 3 7 9 11 12 12 12 12 14 16 16 16 17 17 18 19
13 10 7 6 5 7 9 8 9 8 5 5 7 8 8 10 10 6 4 5 4 2 1 2 1 1 1 1 2 5 1 5 4 4 3 4 3 4 4 1 1 1 0 4 2 1 2 4 6 6 6 7 6 5 4 5 9 4 3 1 6 6 5 5 5 5 4 4 3 4 5 5 4 4 8 12 12 12 12 12 13 16 18 18 18 18 19 20
14 11 7 6 5 6 9 10 10 7 7 7 7 7 9 10 7 2 5 2 4 1 1 3 1 1 0 2 3 3 3 2 3 5 3 6 3 5 5 1 2 1 1 7 1 5 1 3 4 5 6 6 3 3 1 4 9 3 3 4 7 6 5 5 6 5 3 5 5 5 4 5 5 3 8 12 12 12 13 13 13 17 21 21 20 20 20 21
15 12 8 6 6 6 9 11 10 9 9 8 6 6 9 8 2 3 5 0 2 1 1 2 1 1 1 3 2 1 1 2 2 4 2 5 3 5 4 2 3 4 3 7 4 3 2 1 1 3 5 3 3 4 2 7 8 3 3 6 5 5 6 6 5 4 3 6 7 4 5 5 5 3 7 8 9 10 12 11 11 19 24 23 22 22 22 22
16 14 9 6 5 6 8 9 10 10 8 6 5 6 7 4 3 5 4 1 1 2 2 1 1 1 3 5 4 2 1 2 3 1 4 3 3 5 4 2 5 6 4 5 5 2 2 2 2 3 2 4 4 2 3 8 6 3 5 6 6 6 6 6 5 3 5 6 6 5 6 7 5 1 5 5 6 8 9 9 9 15 23 25 24 23 24 24
16 14 9 6 6 7 7 7 9 10 7 6 4 5 5 2 4 5 2 1 0 2 2 1 0 1 3 4 2 3 2 4 2 2 3 4 4 5 4 4 5 5 5 5 4 3 4 5 4 3 1 3 3 3 2 7 7 6 7 5 5 6 5 6 5 4 7 7 4 4 6 8 6 2 2 2 3 5 6 9 10 14 21 25 26 25 24 25
16 12 8 5 6 7 7 7 9 10 8 6 3 4 5 4 5 3 2 2 2 0 1 1 1 0 3 3 1 2 1 2 3 3 2 1 2 1 2 3 2 4 3 1 2 4 6 4 3 5 3 3 4 3 2 5 7 7 7 5 5 5 5 7 6 6 8 6 3 3 4 7 6 2 2 4 5 4 3 8 12 18 24 26 26 26 25 24
14 9 5 4 6 8 9 9 10 10 9 6 4 6 5 5 4 1 2 2 0 3 2 1 1 0 3 4 3 2 2 1 2 1 1 3 2 3 2 3 4 5 2 2 2 3 5 6 3 4 5 1 5 4 2 4 5 7 7 5 6 6 6 8 7 7 8 6 4 3 4 6 5 1 5 6 5 7 5 5 11 19 26 29 29 28 27 25
12 6 2 4 7 8 10 10 10 11 10 6 6 6 6 6 2 2 2 2 2 2 0 1 1 3 4 2 3 1 2 3 2 2 2 3 3 3 4 3 2 4 3 2 2 3 3 3 2 1 1 3 4 4 5 4 4 7 6 5 7 7 7 8 7 7 8 6 3 1 2 6 4 3 5 6 6 7 8 5 7 14 22 28 30 29 28 27
9 3 2 5 7 9 9 10 11 11 10 7 6 6 6 5 3 3 3 2 2 1 2 1 4 6 5 2 3 0 2 2 2 2 1 0 0 2 3 3 4 4 4 3 0 2 6 1 5 3 2 4 4 3 4 6 5 4 4 6 7 7 7 7 7 6 5 4 2 1 4 5 1 6 5 9 9 10 11 10 6 8 16 22 26 27 28 28
8 2 2 4 6 8 9 10 11 11 8 7 7 6 5 2 0 2 1 1 0 1 2 4 6 6 4 4 5 4 1 1 1 2 1 1 1 2 2 3 4 4 4 4 1 1 5 1 6 1 1 1 4 3 1 6 4 1 2 7 6 5 7 7 7 5 3 4 4 5 7 4 2 5 5 10 10 11 12 12 11 7 11 18 22 24 26 27
5 1 1 3 6 8 10 11 10 9 7 8 7 5 3 0 1 2 2 0 0 1 4 5 4 3 3 3 4 5 4 3 2 2 1 2 1 2 2 3 4 4 5 5 2 3 5 3 5 1 2 2 1 2 2 2 4 2 2 4 5 4 6 6 6 5 5 6 5 7 10 6 2 1 6 10 10 11 12 12 11 8 7 13 18 20 24 27
2 2 2 5 7 9 12 11 8 7 7 7 6 3 2 2 3 2 2 1 1 2 6 4 1 2 4 3 3 4 3 3 2 1 1 2 2 2 0 2 3 3 4 5 3 3 4 6 4 4 3 0 3 5 4 5 1 5 3 1 4 5 4 5 6 6 6 7 6 8 10 5 2 3 6 11 11 12 13 11 10 8 5 9 14 16 20 25
0 4 3 6 9 11 11 9 6 6 7 7 6 4 3 3 4 2 2 2 3 3 5 3 1 3 4 3 1 4 3 3 0 0 1 1 2 2 1 1 2 2 3 5 5 2 3 5 0 4 0 3 4 6 6 2 2 4 3 2 4 4 3 4 5 5 5 6 6 7 8 2 2 3 6 9 10 11 13 11 10 11 8 7 11 12 17 21
2 5 4 9 11 11 10 7 5 7 7 5 4 3 3 3 4 4 3 3 4 3 3 2 3 4 4 3 2 2 3 3 2 2 1 1 2 3 2 1 1 1 1 3 3 2 1 3 4 1 1 3 4 2 4 4 2 4 4 4 3 2 5 5 5 5 6 6 5 6 6 1 4 2 5 7 8 10 12 11 11 13 10 5 9 11 14 17
4 6 4 10 13 12 9 7 6 7 5 4 3 3 4 2 3 4 3 4 5 3 3 3 4 3 3 4 3 2 3 4 3 2 1 2 3 2 3 1 2 1 3 5 1 2 3 2 5 6 3 2 1 2 4 5 6 4 3 3 3 2 4 5 5 6 7 6 5 6 6 1 4 1 3 6 8 9 11 11 13 16 13 4 7 10 12 14
4 4 3 10 13 13 9 7 5 4 5 3 2 3 3 1 3 4 3 4 5 4 3 4 4 4 4 4 3 3 4 4 3 3 2 2 2 0 4 2 2 3 4 4 1 3 3 4 5 6 5 3 2 2 2 4 6 7 3 2 3 3 2 3 5 4 6 6 5 7 6 1 3 1 2 4 6 10 12 11 13 17 15 7 4 10 12 12
3 3 2 8 12 13 9 6 4 5 5 2 1 2 3 2 4 4 3 6 5 5 5 5 5 5 5 5 4 4 5 3 2 3 2 2 2 2 4 2 3 4 4 3 1 2 2 3 4 5 3 2 3 3 2 1 2 6 3 0 2 2 1 3 4 1 3 6 5 7 6 1 2 1 2 3 6 10 13 11 11 14 14 10 2 9 13 14
6 4 3 5 9 14 9 5 5 6 5 4 3 6 6 4 5 5 4 6 5 5 6 6 6 6 4 4 5 4 4 3 3 3 3 3 3 6 4 2 4 5 3 3 3 1 2 2 2 6 5 4 4 5 5 4 3 5 2 3 7 6 1 3 4 2 4 4 3 7 6 1 2 1 1 5 8 11 13 13 12 12 11 11 5 5 13 17
6 4 5 4 6 12 9 5 4 4 5 6 7 8 7 5 6 6 5 5 5 6 6 4 5 6 5 5 5 5 5 5 4 3 3 4 4 7 5 3 4 5 2 2 3 3 4 3 2 5 7 5 4 4 3 2 3 4 1 1 6 9 6 3 2 3 5 2 2 7 5 1 2 1 3 7 10 12 12 13 14 12 9 8 5 3 8 14
5 3 5 5 7 11 9 5 6 7 4 6 7 7 8 7 6 5 5 6 6 7 7 4 4 7 7 7 7 7 7 7 4 3 4 5 4 6 6 3 4 5 1 1 5 5 4 5 4 6 7 7 6 5 5 5 7 6 3 4 4 5 8 8 3 2 2 3 4 4 3 2 0 3 5 7 11 11 10 12 15 14 9 4 3 1 6 9
5 2 1 2 5 9 9 6 8 8 3 4 4 4 8 8 5 5 5 5 3 5 8 6 6 8 8 8 8 7 6 7 6 5 6 5 3 4 6 5 5 4 2 3 6 5 5 5 5 6 8 7 7 6 6 6 7 8 6 5 5 4 7 9 6 2 2 3 4 1 2 4 2 5 7 8 10 9 9 10 13 16 12 3 2 3 5 7
4 2 2 2 2 4 5 4 5 5 4 5 3 3 8 10 7 6 5 4 4 6 7 7 9 11 10 9 8 6 6 7 7 7 6 4 4 4 5 6 6 4 5 6 5 4 7 4 2 5 7 6 5 5 5 5 5 6 6 7 8 7 8 9 7 3 4 5 3 2 1 4 2 5 7 8 9 8 10 10 10 15 13 6 1 3 6 7
3 3 1 2 3 3 3 1 1 4 6 5 4 6 8 10 9 6 3 3 6 7 8 8 11 14 12 9 7 5 6 6 6 6 6 5 5 5 4 5 6 5 5 6 4 3 6 3 1 6 7 5 5 4 4 5 5 6 6 6 7 7 8 8 5 2 6 10 6 2 1 1 3 4 6 7 9 9 12 13 12 16 14 9 7 5 6 8
4 4 3 3 5 5 4 4 4 5 5 4 5 7 8 10 9 5 3 5 5 6 8 10 10 11 11 10 8 8 7 7 6 4 6 7 5 4 5 4 3 3 4 5 3 4 4 2 1 4 6 5 5 4 4 5 6 8 8 7 7 8 7 6 4 4 6 10 9 4 1 1 2 3 5 7 9 11 12 11 11 16 14 9 10 11 10 10
4 4 4 5 5 3 4 5 5 5 5 6 6 6 7 9 7 3 4 7 8 5 5 7 7 6 7 8 10 11 9 9 7 3 4 6 4 3 4 3 3 4 3 3 3 4 4 2 1 4 6 3 3 4 6 6 8 10 10 8 8 8 7 6 4 3 4 7 10 7 2 1 1 3 5 6 8 11 11 9 10 14 15 11 11 11 10 11
3 3 3 4 3 2 3 4 5 5 5 3 4 4 5 5 2 2 5 6 8 7 3 2 4 3 6 9 11 12 9 7 5 2 3 5 3 3 4 3 4 5 3 2 3 3 3 4 2 3 5 3 2 4 6 7 8 8 5 5 6 5 6 7 6 4 4 5 7 5 1 2 2 2 4 4 7 10 9 7 8 14 16 12 12 11 11 13
Wind_Direction
49 48 47 47 46 45 44 45 44 42 40 36 34 31 28 25 20 13 6 357 350 344 339 335 335 336 335 331 331 343 344 15 79 87 76 288 241 223 220 194 180 184 183 180 182 179 171 178 181 176 182 202 224 253 264 279 288 278 264 267 38 69 90 248 193 108 139 137 131 154 184 176 148 145 139 140 136 134 138 130 121 115 114 122 130 139 144 146
46 45 45 45 46 46 47 46 41 37 34 30 27 25 24 22 17 12 8 2 356 349 343 336 330 335 337 337 7 51 94 96 86 70 45 258 196 176 192 184 173 171 170 178 187 182 182 187 184 183 194 212 207 234 273 271 283 293 293 340 52 55 85 311 346 98 118 128 136 160 192 196 157 150 158 158 144 145 142 138 133 120 121 127 134 141 144 147
37 39 41 41 42 44 46 41 35 32 28 25 22 20 19 17 12 8 5 4 1 357 355 347 341 343 342 14 88 110 112 102 83 58 38 91 142 162 174 173 170 165 162 175 193 195 200 195 188 192 210 224 196 218 262 257 286 320 307 19 65 46 77 64 31 123 89 118 145 164 178 186 159 155 171 171 157 164 158 149 149 137 136 139 142 145 148 151
26 30 34 35 38 39 40 33 28 27 23 21 19 17 15 12 8 5 4 7 8 9 9 7 3 1 12 64 119 126 127 115 82 47 42 75 112 147 154 163 170 166 163 173 188 195 199 191 190 202 225 225 185 221 262 7 318 310 314 26 56 13 57 58 35 72 101 147 157 158 172 180 165 163 175 174 166 174 170 164 161 150 148 148 149 152 153 154
24 25 27 28 34 35 32 26 22 20 17 16 15 14 12 11 8 5 8 14 18 23 25 27 24 28 47 82 132 142 162 153 76 42 56 74 87 118 139 153 168 169 166 171 178 187 186 182 189 204 229 228 195 214 178 40 317 295 12 41 32 357 29 41 27 40 145 173 162 158 176 177 165 173 186 181 162 112 175 169 162 153 154 154 153 155 156 157
23 23 22 24 29 30 26 20 16 13 11 9 9 10 8 10 9 9 16 21 26 31 35 38 41 52 65 85 122 144 197 92 68 55 75 77 82 98 125 143 162 172 171 170 166 176 178 181 193 203 217 217 217 244 41 13 297 281 104 76 36 19 23 22 19 13 148 177 176 171 168 164 172 182 193 187 128 58 153 155 153 149 154 155 154 157 158 159
19 19 18 21 23 24 19 13 11 7 6 5 6 6 6 10 13 19 25 26 29 33 39 43 52 69 82 94 103 101 79 72 75 75 77 79 85 90 108 129 152 161 158 166 167 178 178 187 200 206 215 202 199 299 4 317 265 275 99 90 43 37 33 18 23 17 47 175 173 166 160 171 189 186 184 186 128 122 137 143 148 145 151 155 156 159 159 159
15 14 15 18 17 17 13 9 7 3 3 3 3 4 5 10 17 21 20 22 25 31 44 46 60 78 91 100 109 98 82 75 84 81 74 74 78 87 99 111 141 151 159 176 174 183 185 193 204 209 218 207 85 320 339 305 232 259 8 90 64 54 49 27 27 30 58 134 163 175 177 177 190 181 176 177 137 138 140 142 147 146 152 157 160 160 159 159
10 12 13 13 12 8 6 6 3 1 3 2 2 3 6 10 11 10 8 13 18 30 47 51 62 81 88 96 219 104 81 83 92 82 72 68 67 80 103 119 143 157 178 184 179 191 191 198 203 213 245 256 332 306 325 306 222 348 24 92 89 77 54 25 23 18 27 149 186 194 187 170 175 183 177 167 148 147 147 147 151 152 155 160 163 161 160 161
8 11 9 10 5 358 1 2 1 2 3 2 1 3 7 8 7 8 10 12 19 32 45 50 55 67 77 68 254 126 85 93 85 71 65 64 61 68 96 153 155 163 185 183 183 191 194 204 195 209 275 281 279 303 318 314 340 22 60 108 96 82 62 19 16 23 327 233 198 216 201 169 172 197 183 164 160 154 151 155 156 157 159 162 165 162 162 162
9 7 5 6 354 349 357 360 1 3 5 3 1 2 4 5 8 13 16 18 29 39 40 45 49 64 70 35 342 67 84 81 69 65 58 55 61 69 86 154 155 172 188 184 188 190 194 200 187 205 244 261 252 281 318 324 328 118 161 133 114 109 88 25 4 46 314 234 184 232 220 172 178 202 179 162 165 158 157 162 162 162 161 163 166 163 163 164
8 5 2 358 342 342 353 360 4 5 5 1 359 360 359 1 5 7 13 19 34 44 41 43 40 63 81 58 43 61 75 56 56 86 109 72 70 78 83 134 157 175 186 192 193 190 190 171 187 223 257 316 263 268 28 2 259 167 198 203 140 169 157 53 356 25 303 241 141 208 224 201 199 195 164 164 167 162 164 169 168 166 162 165 167 165 165 164
4 2 0 349 329 331 351 1 5 7 4 0 358 355 353 356 355 355 6 12 30 48 43 44 40 49 73 68 56 50 55 61 78 136 139 111 84 85 78 101 159 173 170 184 193 188 188 169 176 262 303 290 276 344 92 159 218 198 221 252 196 201 175 85 17 198 226 95 129 183 222 219 195 173 154 170 168 165 172 176 174 170 163 167 170 169 169 167
0 359 356 339 311 322 349 0 5 8 3 358 355 350 349 345 345 349 356 2 27 65 47 46 61 65 68 72 61 55 70 75 85 110 123 107 90 93 88 86 140 166 162 164 178 180 182 175 185 278 251 273 301 179 200 189 210 225 238 241 237 250 142 103 85 205 179 123 149 185 232 224 176 158 152 174 170 170 180 181 178 174 167 168 172 173 172 170
358 356 349 328 293 309 345 356 4 7 359 357 354 349 345 334 341 351 350 356 31 91 52 48 77 131 98 83 70 70 83 76 75 92 112 105 96 90 101 101 108 151 157 157 167 167 171 180 223 255 215 250 256 226 217 203 211 233 253 229 228 279 129 111 110 268 317 124 161 192 245 183 161 155 151 179 175 174 188 187 180 177 170 171 173 175 176 173
355 351 343 324 277 292 336 350 2 2 356 357 355 351 350 339 344 15 357 356 89 121 45 53 90 201 32 80 84 86 91 81 73 77 93 106 123 122 116 114 110 132 142 147 156 153 166 192 244 261 232 224 226 231 232 224 214 215 255 265 302 292 282 107 118 154 317 148 178 203 254 76 144 148 144 181 175 174 202 196 184 182 172 173 175 176 178 175
351 348 341 322 262 274 320 344 358 358 355 358 358 357 0 352 95 51 7 9 111 138 47 51 100 151 59 81 107 89 100 112 91 59 82 91 117 128 119 120 126 128 126 135 145 148 174 207 229 229 230 233 229 241 237 232 226 211 239 263 285 285 301 80 115 112 258 266 196 206 231 85 128 148 153 178 168 177 213 204 186 186 176 174 177 178 179 178
348 345 338 321 258 260 298 335 351 354 357 0 2 6 12 19 138 42 12 30 58 192 127 48 65 168 86 86 92 87 123 150 128 113 100 83 102 125 131 137 139 138 137 142 150 166 191 204 218 222 218 219 222 233 234 254 302 296 284 283 281 269 291 6 41 52 247 284 226 203 226 129 126 147 158 169 169 186 217 212 191 189 182 178 179 180 181 181
347 342 337 322 259 249 273 316 342 352 358 2 8 23 38 35 158 42 16 33 28 348 114 28 359 1 66 74 75 99 149 157 143 136 145 116 106 120 133 141 146 156 162 161 166 184 201 198 212 228 216 205 208 233 256 321 341 323 315 301 304 285 289 21 14 21 324 286 256 222 251 165 132 152 162 168 179 194 215 217 200 193 190 185 183 184 183 183
346 342 335 318 261 237 250 285 330 351 357 4 15 32 37 11 194 86 15 22 31 20 23 3 358 5 29 77 97 134 147 152 141 135 164 161 134 135 135 146 163 184 188 165 159 176 210 216 214 223 214 163 173 224 261 288 289 288 292 284 288 278 311 45 25 26 351 294 256 250 273 208 147 159 166 174 185 196 209 215 205 196 198 192 187 187 183 184
346 342 332 314 260 230 230 250 310 345 355 7 20 37 35 9 11 20 352 353 47 32 38 19 2 15 12 49 157 164 145 135 125 145 173 167 186 179 151 175 192 182 161 139 145 159 216 236 222 216 81 76 224 227 252 269 267 266 275 279 278 261 354 44 35 49 355 290 43 93 266 229 177 170 170 176 184 195 201 207 202 198 204 199 193 191 183 183
346 344 329 307 255 227 221 231 279 329 347 7 24 43 41 19 15 9 343 291 49 27 42 42 29 51 57 53 85 156 163 131 124 137 176 182 207 216 164 199 218 147 147 175 181 173 213 238 213 185 205 234 243 253 259 268 269 266 264 263 266 236 136 87 93 98 197 273 336 346 275 234 174 172 181 187 190 196 198 199 198 199 208 202 195 193 186 183
346 345 328 306 254 223 220 228 258 303 328 2 24 31 19 9 6 11 358 278 97 45 38 33 22 49 64 45 53 128 149 107 121 126 171 204 185 210 187 176 153 138 166 198 221 211 221 231 153 183 215 232 239 237 250 264 259 255 256 258 260 176 234 263 129 140 224 263 296 301 278 237 170 170 186 196 198 198 195 195 194 199 210 206 196 195 191 186
344 343 330 304 253 222 220 228 245 268 298 335 357 358 357 357 359 8 352 271 173 94 51 31 32 50 47 40 55 348 82 77 89 115 173 226 157 167 197 84 150 155 150 210 236 247 265 47 103 197 214 230 243 235 238 254 251 246 246 257 270 267 268 295 84 184 233 229 245 274 275 228 183 184 183 188 195 198 190 195 205 207 211 209 200 198 197 193
338 341 331 302 259 225 220 227 242 253 278 309 319 334 344 350 354 358 323 248 164 123 133 60 57 58 28 346 43 352 142 115 62 105 174 227 229 212 132 124 261 100 93 204 235 248 254 92 173 211 207 224 244 245 241 248 259 256 241 248 269 284 275 278 138 257 262 221 196 273 289 222 169 191 184 172 185 195 188 195 212 215 214 212 205 202 202 199
333 339 330 302 268 228 219 224 237 243 258 273 286 311 333 345 342 345 310 234 146 99 232 122 113 86 53 352 22 258 213 124 70 158 190 205 239 277 215 168 271 36 82 246 259 273 106 123 204 220 213 221 234 247 245 241 256 257 226 232 268 280 266 235 239 270 287 298 142 250 285 289 177 201 185 171 181 186 187 199 213 216 216 214 208 204 204 202
330 335 325 304 274 225 213 219 228 236 249 251 275 304 328 336 334 336 280 226 127 64 308 97 63 46 66 353 300 264 239 95 122 149 185 214 195 271 270 175 211 119 24 275 247 129 123 168 196 211 224 227 231 245 228 225 253 265 81 208 254 260 243 219 240 263 300 313 231 211 259 280 266 217 173 175 179 175 186 202 210 215 219 217 212 207 206 204
328 329 324 304 272 224 212 218 219 226 239 245 271 305 323 328 333 302 255 229 92 35 309 84 42 344 285 285 281 293 22 52 198 123 153 225 201 256 264 54 333 354 317 286 289 100 132 210 189 209 229 229 248 303 1 232 251 286 21 264 253 252 233 222 249 263 296 298 259 197 205 266 272 168 155 179 186 182 193 199 196 204 216 219 215 211 208 206
325 323 324 297 266 228 216 219 213 217 230 242 266 302 324 328 322 238 255 297 81 188 95 73 219 162 212 233 214 244 346 313 330 70 144 226 201 252 282 33 307 295 262 274 302 68 69 330 295 245 246 283 325 329 297 241 246 258 262 253 242 233 226 227 248 260 271 279 275 225 194 253 283 173 162 184 200 202 201 197 189 198 210 219 217 212 210 207
323 319 319 294 259 227 218 218 213 215 223 234 263 307 321 314 237 235 231 149 81 142 122 302 257 179 230 213 165 158 190 77 38 88 181 196 189 226 272 274 252 263 236 233 259 326 62 123 220 239 299 331 316 296 247 240 241 204 215 229 221 211 216 229 233 248 264 259 266 259 222 240 276 204 152 170 216 226 206 193 184 194 209 218 218 213 210 207
322 316 313 286 245 218 209 214 214 209 210 225 261 304 291 245 238 248 200 124 339 152 169 230 94 226 245 236 143 125 138 103 59 293 186 172 194 200 227 230 225 243 225 199 206 184 146 161 172 163 47 337 252 202 218 226 215 203 215 224 223 212 208 226 218 215 249 252 249 250 234 238 250 222 133 144 230 239 203 190 181 185 203 213 217 215 210 206
322 316 309 270 227 202 188 198 207 200 197 210 241 265 254 221 226 242 123 152 230 142 97 81 61 5 214 223 103 104 169 103 69 354 2 245 219 116 331 337 331 265 230 158 186 173 167 156 122 164 171 329 267 200 157 204 205 219 227 218 227 229 217 229 228 220 239 249 239 245 248 249 245 241 15 20 344 309 226 198 189 187 198 207 211 211 208 205
324 317 301 238 207 193 189 192 194 191 187 192 225 239 248 240 221 151 119 177 83 38 27 333 1 26 210 202 135 131 230 52 42 7 29 277 265 107 85 21 343 298 331 11 265 217 175 152 131 185 168 352 285 252 225 206 210 232 233 223 233 235 228 235 232 226 239 236 226 266 280 261 249 198 51 44 16 343 318 236 205 194 197 204 207 209 208 205
325 316 277 212 197 193 193 192 187 183 178 190 227 229 235 239 195 97 189 170 65 54 112 302 216 181 212 215 99 136 225 106 40 297 195 230 239 121 116 93 18 304 300 294 274 307 272 169 101 336 57 5 301 290 302 285 243 238 236 239 248 253 249 249 240 227 237 237 211 124 248 261 258 118 59 31 31 19 359 314 237 205 198 201 206 210 210 204
327 311 239 210 198 195 193 189 183 177 179 203 231 227 228 231 181 172 194 123 95 188 160 192 224 200 191 167 121 137 296 91 111 266 299 328 308 53 56 70 42 337 299 289 68 332 286 299 67 24 346 333 314 312 287 273 255 229 235 241 248 271 268 262 270 259 248 252 250 212 240 279 44 123 67 3 2 21 21 7 323 233 200 195 199 206 208 203
330 315 243 211 198 197 190 181 177 174 186 218 232 225 227 254 167 171 137 69 99 273 193 185 211 221 192 170 162 163 256 326 179 223 96 61 64 53 32 48 32 346 329 327 345 314 275 172 94 110 238 338 325 346 232 263 281 133 216 248 254 297 286 265 267 261 239 241 241 244 251 269 158 138 51 1 351 3 15 15 351 287 211 194 193 197 202 201
330 268 207 206 197 188 176 171 172 178 201 230 235 234 230 74 60 112 97 54 266 300 256 210 190 236 225 189 172 161 183 196 218 252 138 155 149 74 72 72 31 347 353 332 320 40 314 279 121 168 269 109 352 320 156 217 284 266 237 263 266 283 275 263 255 227 219 236 233 242 248 246 221 179 12 356 350 356 1 6 349 310 228 202 196 193 195 196
327 199 187 193 178 162 163 164 168 186 214 232 231 245 257 164 123 104 112 204 263 239 243 236 171 229 245 234 168 150 195 202 171 263 260 196 146 74 4 104 66 18 1 311 292 61 322 287 143 150 283 242 189 243 217 149 198 289 324 344 267 263 239 236 251 237 231 241 237 248 252 254 350 348 354 352 352 351 350 355 345 323 278 214 201 193 191 191
220 199 197 183 166 154 162 162 165 203 222 228 219 211 218 171 138 147 184 215 253 235 232 243 230 216 233 261 173 148 210 254 4 281 268 217 137 109 292 307 93 80 32 324 316 31 328 301 176 129 76 290 233 244 258 168 144 268 273 220 238 277 278 242 250 255 254 252 239 253 259 228 74 341 340 354 358 349 344 347 342 329 305 230 196 189 188 186
231 220 195 176 173 162 165 168 188 218 219 226 237 182 161 175 163 177 211 224 232 240 247 225 207 215 212 234 263 194 210 254 285 282 264 166 166 147 142 276 259 98 14 298 311 341 293 291 302 335 96 267 259 275 307 323 300 240 227 223 210 252 283 266 252 254 259 262 252 248 255 169 101 337 332 355 3 357 350 345 337 327 310 236 183 184 186 180
223 228 177 176 186 172 171 193 207 221 222 225 249 180 156 195 194 181 193 223 232 250 286 267 238 238 219 220 234 203 210 234 236 262 239 181 219 186 124 116 285 273 256 246 245 0 325 297 299 302 299 275 307 25 332 319 310 289 245 222 188 202 266 263 255 257 248 255 272 267 262 96 85 9 331 352 2 9 6 354 339 331 323 278 181 185 188 181
222 239 160 181 193 179 188 220 204 218 237 216 198 171 161 236 230 199 182 202 220 223 233 248 247 243 232 235 243 210 226 240 229 248 245 190 239 138 109 118 274 282 284 279 19 30 328 297 287 297 318 334 40 72 306 306 319 318 303 220 202 192 212 246 250 259 249 244 260 269 263 124 88 24 351 1 13 20 20 7 340 332 332 324 198 184 183 180
279 293 173 196 199 186 205 233 188 208 230 181 120 181 184 214 221 209 196 202 209 212 211 215 222 227 224 230 243 229 230 243 240 251 269 221 201 118 110 141 237 251 275 297 69 118 262 278 279 286 298 264 203 192 215 221 306 294 275 102 291 253 166 252 261 271 254 249 248 250 246 135 83 356 24 44 38 32 29 14 340 331 338 338 301 184 182 174
306 292 225 228 207 191 210 242 209 214 209 182 207 209 198 222 232 226 216 209 206 209 215 212 215 223 214 217 239 235 225 231 225 227 256 244 161 127 139 202 234 247 280 347 9 37 271 271 281 282 273 234 225 224 212 201 232 263 273 23 322 298 243 223 242 232 235 243 274 264 253 125 84 291 32 57 48 40 34 13 344 341 345 339 350 165 187 188
299 250 200 226 205 195 220 274 269 249 207 196 219 215 204 209 218 231 247 238 231 232 232 216 207 213 192 195 227 225 222 243 242 210 227 231 161 145 173 207 244 258 313 9 307 296 290 277 280 287 286 284 284 283 268 263 273 265 217 55 297 296 303 292 236 232 245 254 266 262 270 89 118 307 11 55 50 39 28 4 344 344 349 335 344 98 166 185
295 246 186 185 185 202 229 260 264 265 238 210 218 215 218 214 191 199 240 242 226 225 236 228 203 208 196 200 224 221 214 231 244 228 224 229 191 161 174 202 246 255 347 348 255 262 282 275 261 267 282 300 316 320 311 296 288 279 246 208 227 272 296 298 287 227 278 302 267 268 340 357 42 3 8 40 48 38 20 356 336 332 338 336 330 94 141 162
284 297 211 189 181 205 221 220 229 244 241 226 225 203 219 224 196 181 205 225 218 214 226 224 209 211 201 203 226 230 214 215 223 230 235 241 227 163 168 210 236 223 219 237 234 244 264 258 237 240 261 288 308 305 290 283 287 294 289 266 254 253 267 273 280 324 2 290 263 6 357 286 316 16 4 21 41 35 15 352 326 322 328 321 206 160 139 143
278 328 345 299 250 213 215 205 219 237 229 227 238 221 224 225 213 199 196 196 200 207 216 215 213 219 216 209 222 225 207 210 219 225 234 239 234 207 189 203 209 197 222 231 210 236 266 266 253 258 261 271 280 281 286 291 291 290 287 286 287 285 275 266 270 313 324 292 295 46 284 261 3 9 348 16 39 25 13 12 340 327 335 343 249 161 142 133
308 316 307 276 273 269 289 302 248 248 236 222 229 232 232 231 222 216 208 208 210 207 216 225 218 218 219 215 221 224 205 213 224 217 223 233 233 243 242 214 194 192 235 239 186 210 265 267 247 270 270 260 253 262 282 285 281 280 283 290 295 292 284 274 262 248 274 285 302 10 262 260 44 350 328 15 39 27 24 28 360 336 341 2 16 44 96 106
328 316 329 299 270 265 275 261 240 245 227 202 224 228 229 238 232 212 204 234 231 195 201 231 234 221 217 213 220 228 214 224 249 220 206 226 228 233 258 265 225 201 235 245 181 177 241 255 179 259 267 252 237 249 266 269 276 280 277 277 281 285 283 277 260 221 240 270 284 289 255 121 60 344 338 14 38 41 35 26 2 346 346 8 29 34 51 69
323 323 326 302 274 245 247 240 231 246 231 206 220 223 221 235 239 233 233 237 250 246 217 240 255 237 220 216 222 234 228 227 251 249 196 226 242 222 232 257 251 231 228 232 202 194 225 252 217 246 263 263 240 259 268 268 271 270 269 270 267 273 285 289 283 257 246 271 282 285 281 121 48 349 355 18 41 55 45 16 359 357 356 17 46 40 40 57
324 330 323 294 276 220 235 236 214 231 246 227 225 228 230 237 246 283 254 223 231 253 265 291 289 258 229 222 224 237 241 227 232 245 212 225 242 230 227 232 244 253 261 227 216 225 255 271 257 241 263 269 251 272 278 275 272 265 269 297 291 284 291 292 289 280 259 266 281 291 304 119 91 336 324 3 37 50 41 18 15 11 2 18 48 48 49 60
Height
1535 1534 1534 1533 1532 1532 1531 1530 1530 1529 1528 1528 1527 1526 1525 1524 1524 1523 1522 1521 1520 1519 1519 1518 1517 1517 1516 1516 1516 1516 1516 1516 1517 1517 1518 1518 1517 1518 1518 1519 1519 1520 1521 1523 1524 1525 1526 1526 1526 1527 1527 1527 1526 1525 1523 1524 1522 1520 1517 1513 1515 1523 1532 1528 1522 1524 1526 1526 1527 1528 1529 1528 1531 1533 1534 1535 1536 1536 1537 1538 1538 1540 1541 1542 1543 1545 1548 1550
1536 1535 1534 1534 1533 1532 1532 1531 1531 1530 1529 1528 1527 1527 1526 1525 1524 1523 1522 1521 1520 1519 1518 1517 1517 1516 1516 1515 1516 1516 1516 1516 1517 1517 1518 1517 1517 1518 1518 1518 1519 1520 1522 1523 1524 1526 1527 1527 1527 1527 1527 1525 1524 1524 1523 1523 1521 1519 1515 1512 1519 1526 1527 1524 1521 1521 1523 1526 1528 1529 1530 1529 1530 1532 1533 1534 1535 1536 1537 1538 1539 1540 1542 1543 1545 1546 1548 1550
1536 1535 1535 1534 1533 1533 1532 1532 1531 1530 1530 1529 1528 1527 1526 1525 1524 1523 1522 1521 1520 1519 1517 1517 1516 1516 1515 1515 1515 1515 1516 1516 1517 1518 1518 1517 1517 1517 1518 1518 1519 1520 1522 1524 1525 1526 1527 1527 1527 1527 1526 1524 1523 1523 1522 1521 1520 1518 1517 1516 1522 1522 1521 1523 1523 1523 1523 1526 1527 1529 1530 1530 1531 1532 1533 1534 1534 1535 1535 1537 1538 1540 1542 1544 1545 1547 1549 1551
1536 1536 1535 1534 1534 1533 1533 1532 1531 1531 1530 1529 1529 1527 1527 1526 1524 1523 1522 1521 1520 1519 1517 1517 1516 1515 1515 1515 1515 1515 1516 1515 1517 1519 1518 1517 1517 1517 1518 1518 1519 1521 1522 1524 1525 1525 1526 1527 1527 1527 1526 1523 1522 1522 1520 1520 1520 1518 1517 1519 1521 1519 1520 1524 1525 1524 1525 1526 1527 1529 1531 1531 1531 1533 1533 1533 1535 1535 1534 1536 1537 1539 1541 1542 1545 1547 1549 1551
1536 1536 1535 1535 1534 1533 1533 1532 1532 1531 1530 1530 1529 1528 1527 1526 1525 1523 1522 1521 1520 1519 1518 1517 1516 1516 1515 1515 1515 1515 1515 1515 1518 1520 1518 1517 1517 1517 1518 1518 1519 1521 1522 1524 1524 1525 1526 1527 1527 1527 1525 1522 1521 1521 1519 1520 1521 1519 1519 1520 1520 1519 1521 1524 1525 1526 1526 1527 1528 1529 1531 1531 1531 1533 1533 1533 1536 1537 1535 1536 1537 1539 1541 1542 1544 1547 1549 1551
1536 1536 1535 1535 1534 1534 1533 1533 1532 1531 1530 1530 1529 1528 1527 1526 1525 1523 1522 1521 1520 1519 1518 1517 1517 1516 1516 1516 1516 1516 1515 1517 1519 1520 1519 1518 1518 1518 1518 1519 1520 1521 1523 1524 1525 1526 1526 1527 1527 1525 1524 1522 1522 1520 1519 1521 1521 1520 1520 1520 1521 1522 1523 1525 1526 1526 1526 1527 1528 1529 1530 1531 1532 1533 1533 1534 1536 1537 1536 1537 1538 1539 1542 1543 1545 1547 1549 1551
1536 1536 1535 1535 1534 1534 1533 1533 1532 1531 1531 1530 1529 1528 1527 1526 1525 1524 1523 1521 1520 1520 1518 1518 1517 1517 1517 1516 1516 1516 1516 1518 1521 1520 1519 1519 1519 1519 1519 1520 1521 1522 1523 1525 1526 1526 1526 1527 1525 1523 1522 1522 1522 1520 1520 1521 1520 1520 1520 1520 1522 1524 1525 1526 1526 1526 1527 1527 1528 1530 1531 1531 1531 1532 1533 1534 1536 1537 1537 1537 1539 1540 1542 1544 1546 1547 1549 1551
1536 1536 1535 1535 1534 1534 1534 1533 1532 1531 1531 1530 1529 1528 1527 1526 1525 1524 1523 1522 1521 1520 1519 1518 1518 1518 1518 1517 1516 1516 1518 1520 1521 1520 1520 1520 1519 1520 1520 1521 1521 1522 1524 1525 1526 1526 1526 1526 1525 1523 1522 1521 1522 1521 1520 1520 1518 1519 1520 1521 1523 1524 1526 1526 1526 1527 1527 1528 1529 1530 1530 1531 1531 1532 1533 1534 1536 1536 1537 1538 1539 1541 1543 1545 1546 1548 1549 1551
1536 1536 1535 1535 1534 1534 1534 1533 1532 1532 1531 1530 1529 1528 1527 1526 1525 1524 1523 1522 1521 1520 1520 1519 1519 1519 1518 1518 1516 1515 1519 1522 1521 1521 1521 1520 1520 1520 1521 1521 1522 1523 1524 1525 1525 1526 1526 1525 1525 1524 1522 1521 1522 1521 1520 1521 1521 1519 1520 1522 1523 1525 1526 1526 1527 1527 1528 1529 1529 1529 1529 1531 1532 1532 1533 1534 1535 1536 1537 1539 1540 1542 1543 1545 1547 1548 1549 1551
1536 1536 1535 1535 1535 1534 1534 1533 1533 1532 1531 1530 1529 1528 1527 1526 1525 1524 1523 1522 1521 1520 1520 1519 1519 1519 1518 1518 1515 1516 1521 1522 1521 1522 1521 1521 1521 1521 1521 1522 1522 1523 1524 1524 1525 1526 1526 1525 1525 1526 1524 1522 1522 1522 1520 1521 1522 1520 1521 1522 1523 1525 1526 1527 1527 1528 1529 1528 1529 1529 1529 1531 1532 1534 1535 1534 1535 1536 1537 1539 1540 1541 1543 1545 1547 1548 1550 1551
1536 1536 1535 1535 1535 1534 1534 1533 1533 1532 1531 1530 1529 1528 1527 1526 1525 1524 1523 1522 1522 1521 1521 1520 1520 1519 1519 1518 1515 1517 1522 1522 1522 1522 1522 1522 1522 1522 1522 1522 1522 1523 1524 1524 1525 1525 1526 1526 1526 1526 1524 1522 1522 1521 1520 1521 1521 1521 1522 1522 1524 1525 1526 1527 1527 1528 1528 1528 1529 1529 1529 1530 1532 1534 1536 1535 1535 1536 1537 1539 1540 1541 1543 1545 1547 1548 1550 1551
1536 1536 1535 1535 1535 1534 1534 1534 1533 1532 1531 1530 1529 1528 1527 1526 1525 1525 1524 1523 1522 1521 1521 1521 1520 1520 1519 1518 1518 1520 1522 1522 1522 1522 1522 1522 1522 1522 1522 1521 1522 1523 1524 1525 1525 1525 1525 1526 1527 1526 1524 1523 1522 1521 1522 1522 1521 1521 1521 1522 1524 1524 1525 1526 1526 1528 1528 1527 1529 1530 1533 1533 1531 1533 1534 1534 1535 1536 1538 1539 1540 1541 1542 1545 1546 1548 1550 1551
1536 1536 1535 1535 1535 1534 1534 1534 1533 1532 1531 1530 1529 1528 1527 1526 1525 1525 1524 1523 1523 1522 1522 1521 1521 1521 1519 1519 1521 1522 1522 1521 1521 1522 1522 1522 1523 1523 1522 1522 1521 1522 1523 1524 1525 1525 1525 1525 1526 1526 1525 1523 1521 1521 1523 1521 1522 1521 1519 1520 1523 1525 1527 1526 1526 1527 1527 1528 1528 1530 1538 1535 1529 1531 1532 1533 1535 1535 1537 1538 1539 1541 1541 1544 1546 1548 1549 1551
1536 1536 1535 1535 1535 1534 1534 1534 1533 1532 1531 1530 1529 1528 1527 1526 1525 1525 1524 1523 1523 1522 1522 1522 1522 1521 1520 1521 1523 1523 1522 1522 1522 1522 1522 1523 1523 1523 1523 1522 1522 1521 1521 1522 1524 1524 1525 1526 1526 1526 1525 1524 1521 1522 1521 1520 1521 1520 1519 1520 1522 1527 1528 1525 1525 1526 1527 1529 1527 1530 1538 1533 1528 1531 1532 1533 1535 1536 1537 1537 1538 1540 1540 1543 1545 1547 1549 1550
1536 1535 1535 1535 1534 1534 1534 1534 1533 1532 1531 1530 1529 1528 1527 1526 1525 1525 1524 1523 1523 1523 1522 1522 1522 1521 1519 1521 1524 1523 1522 1523 1522 1523 1523 1523 1524 1524 1523 1523 1523 1522 1522 1523 1523 1524 1525 1526 1526 1524 1523 1524 1523 1522 1520 1520 1518 1518 1523 1524 1521 1526 1527 1524 1525 1525 1526 1528 1526 1530 1536 1532 1529 1531 1531 1533 1534 1536 1536 1536 1537 1538 1539 1542 1544 1546 1548 1550
1536 1535 1535 1534 1534 1534 1534 1533 1533 1532 1531 1530 1529 1527 1526 1526 1525 1525 1524 1523 1522 1523 1523 1522 1522 1521 1519 1521 1524 1523 1523 1524 1523 1524 1523 1523 1524 1524 1524 1523 1523 1523 1523 1524 1524 1525 1527 1526 1526 1524 1523 1522 1521 1520 1521 1522 1522 1520 1524 1526 1524 1525 1525 1525 1526 1524 1524 1526 1526 1529 1534 1535 1533 1532 1532 1533 1534 1537 1537 1536 1537 1538 1539 1541 1543 1545 1547 1549
1536 1535 1535 1534 1534 1534 1534 1533 1533 1532 1531 1530 1528 1526 1526 1525 1525 1525 1524 1523 1522 1523 1523 1522 1522 1521 1520 1522 1524 1523 1524 1524 1524 1524 1523 1524 1524 1524 1524 1524 1524 1525 1525 1525 1526 1526 1527 1526 1525 1523 1521 1519 1517 1520 1526 1528 1526 1522 1521 1522 1525 1525 1524 1526 1528 1525 1523 1525 1527 1528 1530 1534 1533 1531 1532 1533 1536 1539 1538 1536 1536 1537 1539 1540 1542 1544 1546 1548
1536 1535 1534 1534 1534 1534 1533 1533 1533 1532 1531 1529 1528 1526 1525 1524 1524 1525 1524 1523 1522 1522 1522 1522 1522 1522 1522 1523 1523 1523 1524 1525 1524 1524 1524 1524 1524 1524 1524 1525 1525 1525 1525 1526 1526 1526 1526 1524 1522 1521 1519 1520 1519 1522 1528 1528 1524 1524 1523 1523 1525 1524 1523 1526 1527 1525 1523 1524 1526 1527 1528 1529 1530 1531 1532 1533 1536 1538 1537 1536 1536 1537 1538 1540 1541 1543 1545 1547
1536 1535 1534 1534 1533 1533 1533 1533 1533 1532 1531 1529 1528 1526 1525 1525 1525 1524 1524 1523 1522 1521 1521 1522 1521 1522 1523 1523 1523 1524 1524 1524 1524 1524 1525 1524 1524 1524 1524 1525 1525 1524 1523 1523 1525 1524 1524 1522 1523 1523 1520 1520 1520 1520 1523 1523 1523 1525 1523 1523 1525 1525 1524 1525 1525 1522 1522 1525 1524 1524 1525 1525 1528 1531 1531 1533 1535 1537 1537 1536 1536 1538 1538 1540 1541 1542 1544 1546
1536 1535 1534 1533 1533 1533 1533 1533 1533 1532 1531 1530 1528 1527 1526 1525 1523 1523 1524 1524 1523 1522 1522 1523 1522 1522 1522 1523 1524 1524 1523 1524 1524 1524 1525 1524 1524 1524 1524 1525 1524 1523 1520 1519 1523 1523 1522 1523 1523 1521 1518 1517 1519 1520 1521 1521 1522 1524 1522 1521 1522 1523 1524 1524 1525 1522 1522 1525 1523 1522 1523 1523 1527 1529 1530 1533 1534 1535 1537 1536 1536 1538 1539 1539 1540 1541 1543 1545
1535 1534 1533 1533 1533 1533 1533 1533 1532 1532 1532 1530 1529 1528 1528 1527 1525 1525 1525 1524 1524 1524 1523 1523 1523 1522 1522 1523 1523 1523 1523 1523 1523 1524 1524 1524 1524 1523 1523 1523 1521 1521 1520 1519 1522 1523 1524 1524 1520 1516 1516 1518 1519 1520 1521 1521 1522 1521 1521 1520 1519 1520 1524 1524 1525 1524 1524 1526 1523 1522 1524 1523 1524 1526 1528 1531 1532 1533 1535 1536 1536 1537 1539 1539 1539 1540 1542 1545
1535 1534 1533 1532 1532 1532 1532 1533 1532 1532 1532 1531 1530 1530 1530 1529 1528 1528 1526 1524 1523 1523 1523 1523 1523 1523 1523 1523 1523 1523 1522 1521 1522 1524 1524 1524 1524 1521 1520 1520 1518 1519 1521 1521 1522 1524 1525 1522 1516 1515 1517 1519 1519 1520 1522 1522 1522 1521 1518 1519 1519 1518 1522 1526 1525 1523 1524 1526 1523 1522 1523 1521 1520 1523 1526 1528 1529 1531 1532 1533 1535 1537 1538 1539 1539 1540 1541 1544
1535 1533 1532 1532 1531 1532 1532 1532 1532 1532 1532 1531 1531 1531 1530 1529 1528 1527 1526 1524 1523 1523 1524 1523 1523 1523 1523 1523 1523 1522 1521 1520 1521 1523 1524 1523 1522 1521 1519 1517 1518 1519 1521 1521 1520 1523 1524 1518 1513 1515 1517 1520 1521 1520 1522 1523 1521 1520 1517 1518 1516 1515 1522 1527 1525 1524 1524 1524 1523 1522 1522 1519 1519 1522 1525 1528 1529 1529 1532 1533 1534 1536 1538 1538 1538 1540 1541 1542
1534 1533 1532 1531 1531 1532 1531 1532 1532 1532 1532 1531 1531 1531 1530 1529 1528 1527 1526 1524 1522 1522 1523 1523 1523 1523 1523 1523 1523 1522 1521 1521 1521 1521 1523 1523 1521 1521 1519 1518 1518 1519 1520 1519 1519 1520 1519 1514 1513 1516 1518 1520 1521 1520 1521 1523 1521 1517 1515 1516 1514 1515 1520 1521 1523 1524 1522 1522 1522 1522 1523 1518 1516 1522 1523 1525 1529 1529 1531 1532 1533 1535 1536 1537 1538 1539 1541 1542
1533 1532 1531 1530 1530 1531 1531 1532 1531 1531 1532 1531 1531 1531 1529 1529 1527 1527 1527 1524 1523 1522 1521 1523 1523 1523 1523 1522 1523 1522 1521 1522 1522 1522 1523 1523 1522 1521 1519 1520 1519 1518 1520 1520 1519 1518 1515 1514 1515 1518 1519 1519 1521 1520 1519 1521 1521 1516 1513 1512 1511 1513 1516 1518 1522 1524 1522 1524 1520 1522 1532 1524 1512 1516 1519 1521 1526 1528 1529 1530 1531 1533 1534 1535 1537 1538 1540 1541
1532 1532 1531 1530 1530 1529 1531 1531 1531 1531 1532 1531 1531 1530 1529 1529 1527 1528 1526 1522 1523 1523 1521 1522 1522 1522 1523 1522 1522 1522 1521 1521 1521 1522 1523 1522 1522 1521 1520 1519 1518 1519 1520 1518 1517 1515 1514 1515 1517 1518 1519 1519 1521 1520 1516 1516 1521 1519 1511 1507 1510 1513 1515 1518 1523 1524 1524 1526 1521 1520 1533 1530 1515 1512 1513 1516 1522 1524 1527 1529 1529 1531 1533 1533 1535 1536 1538 1540
1531 1531 1530 1529 1529 1529 1530 1530 1530 1531 1531 1531 1530 1529 1530 1528 1526 1528 1526 1527 1528 1524 1522 1522 1522 1522 1522 1522 1521 1521 1523 1522 1521 1522 1522 1522 1522 1521 1520 1518 1517 1518 1517 1517 1519 1517 1514 1517 1518 1518 1518 1519 1519 1517 1512 1513 1519 1517 1508 1507 1512 1512 1515 1519 1522 1524 1521 1521 1520 1518 1524 1530 1522 1510 1506 1510 1518 1521 1524 1526 1527 1529 1531 1531 1533 1534 1536 1538
1530 1530 1529 1528 1528 1528 1528 1529 1530 1530 1531 1530 1529 1530 1529 1527 1528 1526 1528 1538 1535 1523 1521 1521 1521 1522 1522 1522 1521 1520 1521 1521 1520 1522 1521 1522 1522 1520 1519 1517 1517 1517 1515 1519 1521 1516 1513 1516 1517 1517 1518 1517 1514 1512 1510 1513 1517 1513 1507 1509 1510 1510 1515 1517 1518 1521 1520 1523 1525 1517 1519 1531 1523 1507 1504 1508 1513 1519 1521 1521 1523 1526 1528 1529 1530 1532 1534 1536
1529 1528 1528 1527 1527 1527 1527 1528 1528 1529 1529 1529 1529 1530 1528 1527 1529 1524 1528 1539 1532 1520 1522 1522 1520 1522 1521 1521 1521 1520 1520 1519 1520 1521 1520 1521 1521 1520 1518 1517 1518 1518 1516 1517 1517 1514 1513 1515 1515 1515 1516 1514 1511 1510 1510 1513 1513 1509 1508 1510 1509 1511 1514 1515 1519 1520 1522 1529 1528 1515 1517 1530 1523 1504 1505 1512 1512 1514 1515 1515 1519 1521 1524 1526 1527 1529 1532 1533
1528 1527 1527 1526 1526 1526 1526 1527 1528 1528 1528 1529 1529 1529 1528 1528 1527 1529 1538 1539 1526 1520 1522 1520 1520 1521 1520 1519 1519 1519 1519 1519 1519 1520 1520 1520 1520 1520 1518 1518 1518 1516 1515 1515 1515 1513 1512 1515 1515 1514 1514 1513 1511 1511 1511 1510 1509 1508 1510 1512 1513 1513 1514 1517 1517 1518 1528 1533 1524 1513 1511 1522 1526 1509 1502 1510 1510 1507 1507 1511 1516 1519 1521 1523 1524 1526 1529 1531
1527 1526 1525 1525 1525 1525 1526 1527 1527 1527 1528 1529 1528 1528 1529 1527 1524 1533 1541 1532 1522 1522 1520 1519 1520 1519 1519 1518 1518 1518 1517 1518 1519 1518 1518 1517 1517 1516 1516 1517 1517 1515 1515 1514 1514 1513 1513 1515 1513 1512 1513 1512 1510 1511 1511 1509 1508 1509 1511 1514 1518 1519 1518 1522 1520 1524 1539 1535 1518 1510 1507 1515 1526 1513 1498 1503 1503 1499 1501 1506 1511 1515 1517 1519 1521 1523 1525 1528
1526 1525 1524 1523 1524 1524 1525 1526 1525 1526 1528 1527 1529 1528 1527 1529 1529 1531 1529 1524 1525 1524 1519 1521 1520 1518 1520 1518 1518 1519 1518 1518 1518 1517 1517 1516 1515 1516 1517 1518 1518 1518 1517 1514 1514 1514 1513 1512 1510 1511 1513 1511 1511 1512 1513 1511 1510 1511 1511 1516 1527 1531 1533 1537 1533 1534 1537 1527 1513 1509 1510 1515 1518 1507 1498 1501 1502 1498 1497 1499 1503 1508 1512 1515 1517 1519 1522 1525
1525 1523 1523 1523 1523 1523 1524 1524 1524 1526 1527 1527 1529 1526 1526 1533 1534 1526 1521 1522 1526 1522 1519 1522 1520 1519 1521 1518 1519 1520 1518 1520 1519 1518 1519 1517 1516 1518 1519 1518 1517 1520 1519 1516 1516 1513 1512 1512 1510 1511 1512 1511 1510 1511 1515 1514 1512 1514 1513 1519 1528 1531 1541 1545 1536 1533 1532 1522 1512 1509 1515 1518 1511 1504 1503 1503 1503 1502 1498 1497 1499 1502 1506 1510 1512 1515 1519 1522
1524 1522 1522 1522 1522 1523 1523 1524 1525 1525 1526 1528 1527 1525 1530 1536 1530 1522 1521 1521 1521 1520 1520 1521 1520 1520 1520 1519 1520 1519 1519 1521 1518 1517 1518 1517 1518 1518 1518 1519 1517 1517 1517 1517 1517 1515 1518 1520 1514 1512 1512 1510 1509 1509 1510 1509 1510 1511 1507 1514 1520 1516 1526 1531 1523 1526 1528 1519 1513 1518 1525 1519 1510 1508 1506 1502 1502 1500 1499 1497 1497 1498 1501 1505 1509 1512 1516 1518
1523 1522 1522 1521 1522 1522 1522 1523 1524 1524 1527 1527 1524 1526 1532 1531 1522 1520 1521 1519 1518 1520 1519 1519 1520 1521 1520 1519 1520 1519 1520 1521 1518 1518 1518 1517 1519 1520 1519 1519 1518 1517 1517 1518 1519 1517 1521 1521 1513 1511 1510 1509 1510 1508 1507 1508 1510 1508 1503 1512 1518 1508 1509 1514 1511 1510 1516 1522 1525 1526 1520 1507 1503 1506 1502 1503 1504 1498 1498 1498 1495 1497 1498 1501 1506 1508 1511 1515
1522 1522 1522 1521 1521 1521 1522 1523 1524 1524 1526 1525 1524 1526 1525 1520 1516 1517 1518 1518 1519 1520 1519 1520 1520 1520 1521 1520 1520 1520 1520 1520 1519 1519 1519 1520 1520 1521 1521 1520 1519 1518 1518 1520 1520 1518 1521 1517 1510 1511 1511 1508 1510 1508 1505 1510 1512 1509 1512 1517 1512 1503 1504 1513 1517 1509 1515 1535 1536 1523 1515 1505 1506 1509 1503 1505 1508 1501 1498 1497 1497 1498 1496 1498 1502 1504 1508 1512
1522 1522 1522 1521 1521 1521 1522 1523 1523 1525 1525 1523 1524 1523 1517 1515 1515 1515 1517 1518 1519 1519 1520 1521 1520 1520 1521 1520 1520 1521 1520 1520 1519 1518 1520 1522 1521 1521 1521 1520 1520 1519 1518 1519 1518 1518 1522 1517 1509 1511 1513 1509 1509 1508 1505 1506 1508 1509 1518 1517 1506 1505 1507 1512 1521 1520 1526 1540 1531 1518 1519 1515 1513 1515 1509 1507 1509 1507 1501 1497 1498 1499 1496 1496 1499 1501 1505 1508
1522 1522 1522 1521 1521 1521 1522 1523 1523 1524 1524 1522 1523 1521 1516 1515 1516 1516 1517 1518 1518 1519 1519 1520 1519 1520 1521 1520 1519 1519 1519 1520 1519 1518 1520 1522 1522 1522 1521 1521 1521 1520 1519 1519 1517 1517 1521 1520 1511 1507 1513 1509 1506 1510 1508 1504 1506 1507 1510 1509 1510 1518 1520 1516 1521 1524 1533 1541 1528 1515 1514 1515 1518 1518 1513 1512 1512 1510 1505 1500 1499 1498 1495 1496 1497 1500 1504 1506
1522 1522 1521 1521 1521 1521 1522 1523 1523 1523 1523 1522 1521 1519 1516 1515 1516 1517 1518 1518 1518 1519 1518 1517 1518 1519 1520 1519 1518 1518 1520 1520 1518 1519 1521 1522 1523 1523 1520 1521 1521 1520 1519 1518 1518 1517 1519 1525 1519 1505 1507 1509 1506 1510 1512 1507 1506 1506 1506 1509 1510 1515 1520 1520 1516 1516 1526 1533 1528 1524 1519 1518 1523 1520 1514 1515 1513 1510 1508 1503 1500 1498 1496 1496 1497 1500 1503 1505
1521 1520 1519 1520 1521 1521 1521 1523 1523 1522 1520 1519 1516 1515 1515 1515 1516 1517 1518 1518 1517 1517 1517 1516 1517 1519 1519 1518 1517 1517 1519 1519 1518 1520 1520 1520 1522 1522 1520 1521 1520 1520 1520 1518 1518 1518 1516 1524 1524 1509 1504 1511 1513 1512 1512 1511 1510 1508 1510 1514 1513 1514 1515 1515 1510 1506 1514 1522 1525 1531 1527 1518 1518 1517 1513 1513 1510 1508 1508 1505 1503 1500 1496 1495 1497 1500 1503 1505
1521 1518 1517 1520 1520 1520 1522 1522 1520 1518 1517 1516 1514 1514 1515 1515 1515 1515 1517 1518 1516 1516 1516 1516 1516 1517 1517 1518 1517 1516 1518 1519 1518 1519 1519 1519 1520 1521 1520 1521 1520 1519 1520 1517 1516 1518 1518 1521 1524 1515 1508 1513 1517 1513 1511 1514 1511 1507 1509 1511 1514 1520 1519 1521 1524 1513 1506 1512 1516 1521 1523 1517 1513 1512 1510 1510 1508 1506 1506 1507 1506 1502 1499 1497 1498 1501 1504 1505
1519 1516 1516 1519 1519 1520 1521 1519 1516 1516 1515 1514 1513 1513 1515 1516 1515 1514 1515 1516 1516 1515 1516 1516 1516 1515 1516 1516 1516 1516 1517 1518 1518 1518 1518 1517 1517 1519 1519 1521 1522 1520 1519 1518 1516 1518 1519 1520 1522 1519 1513 1513 1514 1512 1512 1514 1511 1508 1508 1505 1507 1513 1517 1529 1538 1524 1509 1509 1509 1511 1518 1517 1511 1508 1508 1508 1507 1506 1507 1508 1508 1506 1503 1500 1499 1502 1504 1505
1519 1516 1516 1518 1518 1520 1521 1517 1515 1516 1514 1512 1512 1513 1514 1515 1514 1514 1514 1514 1514 1514 1515 1515 1515 1515 1515 1514 1515 1516 1517 1517 1518 1518 1518 1518 1517 1517 1519 1521 1522 1519 1518 1517 1517 1519 1520 1521 1524 1522 1515 1512 1511 1510 1510 1511 1514 1516 1511 1506 1506 1507 1510 1518 1520 1516 1516 1515 1509 1511 1519 1519 1513 1507 1506 1506 1505 1506 1508 1508 1509 1508 1505 1503 1502 1502 1503 1505
1519 1518 1517 1517 1517 1519 1519 1514 1513 1513 1511 1512 1513 1513 1513 1514 1513 1513 1512 1512 1512 1513 1513 1513 1513 1513 1513 1513 1515 1516 1516 1519 1520 1517 1518 1519 1517 1518 1520 1521 1521 1519 1517 1518 1518 1520 1521 1522 1526 1528 1523 1520 1519 1518 1517 1512 1513 1515 1511 1513 1516 1509 1506 1509 1506 1508 1519 1518 1512 1515 1519 1518 1514 1506 1503 1504 1503 1505 1508 1510 1512 1509 1506 1505 1504 1503 1504 1505
1518 1517 1516 1517 1517 1517 1516 1512 1510 1509 1509 1512 1513 1512 1512 1512 1512 1512 1512 1511 1511 1511 1511 1511 1511 1511 1512 1514 1515 1515 1516 1519 1519 1518 1518 1518 1516 1518 1520 1521 1521 1518 1518 1520 1519 1519 1521 1521 1524 1530 1533 1531 1529 1528 1525 1518 1514 1513 1512 1519 1523 1515 1510 1509 1507 1513 1520 1515 1511 1515 1515 1514 1511 1506 1504 1502 1502 1505 1509 1510 1512 1511 1508 1508 1506 1505 1505 1505
1517 1515 1514 1514 1515 1516 1514 1512 1512 1510 1509 1511 1512 1511 1511 1511 1510 1511 1512 1511 1510 1511 1510 1510 1510 1511 1512 1514 1516 1516 1516 1516 1517 1518 1518 1517 1515 1517 1519 1520 1521 1519 1519 1521 1520 1519 1521 1520 1520 1526 1528 1525 1524 1522 1519 1517 1517 1515 1514 1518 1521 1520 1516 1512 1510 1515 1519 1517 1513 1512 1513 1514 1512 1509 1507 1504 1503 1508 1510 1509 1512 1512 1510 1509 1507 1506 1506 1505
1518 1514 1512 1513 1514 1513 1512 1512 1512 1510 1509 1510 1510 1509 1510 1510 1508 1510 1511 1510 1510 1510 1510 1510 1510 1511 1512 1513 1515 1516 1515 1515 1517 1518 1517 1516 1514 1515 1518 1519 1519 1520 1520 1520 1520 1519 1521 1521 1518 1520 1522 1518 1518 1518 1516 1516 1518 1516 1515 1516 1516 1517 1518 1517 1515 1513 1515 1520 1519 1515 1515 1516 1513 1511 1512 1509 1507 1510 1513 1514 1515 1514 1512 1510 1508 1506 1505 1505
1518 1516 1515 1516 1514 1511 1510 1511 1511 1510 1510 1510 1509 1509 1509 1509 1508 1509 1509 1508 1509 1509 1510 1510 1510 1509 1508 1510 1512 1514 1515 1517 1518 1517 1516 1516 1515 1515 1517 1517 1517 1518 1518 1518 1518 1518 1520 1520 1517 1517 1519 1517 1517 1518 1516 1516 1518 1517 1516 1516 1515 1514 1515 1517 1517 1514 1517 1521 1517 1512 1515 1515 1513 1514 1515 1513 1511 1513 1515 1516 1516 1515 1513 1511 1508 1506 1506 1506
1519 1517 1517 1517 1515 1512 1511 1512 1512 1511 1510 1510 1510 1509 1509 1508 1507 1507 1506 1507 1508 1507 1508 1510 1508 1506 1504 1505 1509 1513 1515 1517 1518 1517 1516 1516 1517 1516 1516 1515 1515 1516 1516 1515 1516 1518 1519 1519 1517 1518 1519 1517 1517 1518 1516 1517 1518 1517 1516 1515 1514 1514 1513 1513 1514 1516 1522 1522 1513 1508 1513 1514 1513 1516 1516 1515 1514 1515 1515 1515 1516 1516 1514 1511 1509 1508 1507 1507
1521 1519 1518 1518 1515 1513 1513 1513 1512 1512 1510 1510 1511 1509 1507 1508 1506 1505 1506 1507 1508 1505 1506 1508 1505 1502 1502 1504 1508 1510 1510 1511 1513 1513 1514 1515 1516 1517 1516 1514 1513 1513 1514 1514 1515 1518 1520 1519 1518 1518 1520 1519 1516 1516 1517 1518 1519 1518 1516 1515 1514 1514 1513 1512 1514 1517 1522 1526 1518 1509 1510 1513 1513 1515 1516 1516 1516 1515 1515 1517 1519 1518 1514 1512 1512 1510 1509 1508
1522 1521 1521 1519 1515 1513 1513 1512 1511 1511 1509 1509 1509 1507 1506 1507 1505 1506 1506 1506 1506 1505 1504 1506 1504 1502 1503 1505 1507 1507 1505 1505 1507 1508 1510 1512 1513 1514 1514 1513 1512 1514 1514 1514 1515 1516 1517 1518 1517 1519 1525 1524 1516 1516 1517 1516 1516 1518 1516 1514 1513 1514 1514 1512 1513 1516 1519 1524 1522 1515 1513 1516 1515 1514 1516 1517 1517 1517 1519 1522 1521 1518 1515 1513 1513 1513 1512 1510
1522 1521 1521 1521 1516 1512 1512 1510 1510 1512 1509 1506 1506 1506 1506 1506 1505 1508 1508 1505 1505 1505 1504 1505 1506 1505 1505 1506 1506 1505 1503 1504 1506 1507 1509 1510 1510 1511 1512 1512 1512 1513 1513 1514 1515 1515 1515 1517 1516 1519 1528 1526 1518 1517 1517 1516 1521 1523 1518 1516 1514 1513 1515 1514 1513 1514 1515 1518 1521 1521 1519 1518 1516 1515 1517 1518 1517 1518 1522 1525 1521 1517 1516 1515 1514 1514 1513 1511